Location: Unspecified
(50.0760°N, 14.4380°E)
Time: 07:19:38
(UTC+00:00)

Daily predictions for brighter satellites

Satellite Brightness Start Highest point End
(mag) Time Altitude Azimuth Time Altitude Azimuth Time Altitude Azimuth
ATLAS 5 CENTAUR R/B 3.6 16:29:08 10° WNW 16:33:18 26° NNW 16:37:50 10° NE
Cosmos 1624 Rocket 4.2 16:29:07 10° NNW 16:34:22 81° WSW 16:39:36 10° SSE
Cosmos 1295 Rocket 4.5 16:30:01 10° S 16:36:08 83° E 16:42:21 10° N
YAOGAN 1 2.5 16:36:21 10° SSE 16:40:41 79° ENE 16:45:01 10° NNW
Cosmos 1420 Rocket 4.5 16:38:19 10° NNW 16:43:24 42° ENE 16:48:25 10° SE
Meteor 1-11 4.3 16:37:34 10° N 16:43:24 78° ENE 16:49:09 10° SSE
Cosmos 1626 2.2 16:40:36 10° N 16:44:19 58° ENE 16:47:59 10° SSE
Cosmos 1680 Rocket 4.0 16:40:59 10° SW 16:46:14 65° WNW 16:51:29 10° NNE
Aureole 2 Rocket 4.4 16:43:52 10° N 16:46:18 16° NE 16:48:48 10° E
Cosmos 2322 3.8 16:41:20 10° NNW 16:47:02 60° ENE 16:52:41 10° SE
GP-B 3.2 16:43:45 10° N 16:48:08 55° E 16:52:29 10° SSE
Cosmos-2242 3.0 16:45:06 10° S 16:49:22 89° E 16:53:39 10° N
deb Kosmos-1763 4.1 16:47:37 10° SSW 16:51:26 75° ESE 16:55:17 10° NNE
Cosmos 1833 Rocket 4.5 16:47:07 10° WSW 16:51:59 29° NW 16:56:53 10° NNE
FENGYUN 3A 3.9 16:48:12 10° SE 16:53:23 49° ENE 16:58:36 10° N
Meteor 2-21 Rocket 4.4 16:47:44 10° S 16:53:49 79° E 16:59:54 10° NNE
Cosmos 2151 3.0 16:49:37 10° N 16:53:53 59° ENE 16:58:05 10° SSE
Meteor 1-16 Rocket 4.1 16:50:03 10° S 16:55:21 82° E 17:00:45 10° NNE
Cosmos 1315 Rocket 3.2 16:52:18 10° N 16:56:12 42° ENE 17:00:05 10° SE
Aureole 1 Rocket 3.6 16:52:45 10° SSW 16:59:01 76° ESE 17:03:44 10° NNE
FREGAT/IRIS 3.9 16:56:41 10° ESE 16:59:02 21° ENE 17:01:23 10° NNE
SKYMED 2 3.7 16:55:53 10° NNE 17:00:09 52° E 17:04:23 10° S
Cosmos 1743 Rocket 3.6 17:00:32 10° N 17:04:56 85° W 17:09:20 10° S
MTI 3.8 17:01:55 10° NNE 17:05:10 87° WNW 17:08:23 10° SSW
BREEZE-M DEB (TANK) 3.4 17:04:40 10° SSW 17:06:13 17° SSE 17:06:54 15° SE
Cosmos 2219 Rocket 2.8 17:01:36 10° NNW 17:06:45 35° NE 17:11:23 12° ESE
Gbstr 26 Del rocket 3.5 17:02:03 10° WNW 17:06:49 88° NNE 17:12:00 14° ESE
Cosmos 2366 rocket 3.9 17:02:10 10° S 17:08:23 80° E 17:14:34 10° NNE
EO 1 Del DPAF 3.2 17:04:48 10° NNE 17:08:41 77° ESE 17:12:31 10° S
CZ-2C R/B 4.2 17:09:31 10° N 17:14:03 63° WNW 17:18:28 10° SSW
BREEZE-M DEB (TANK) 4.0 17:10:35 10° W 17:14:23 62° SSW 17:28:13 10° ESE
RESURS DK-1 2.6 17:11:28 10° NW 17:15:37 72° WSW 17:19:43 10° SSE
ALOS 2.2 17:11:00 10° SSE 17:15:39 73° ENE 17:20:21 10° N
Cosmos 1842 Rocket 3.5 17:12:58 10° S 17:17:25 74° E 17:21:53 10° NNE
Cosmos 2058 3.1 17:14:47 10° NNW 17:19:00 79° W 17:23:09 10° S
SL-16 R/B 4.1 17:14:19 10° NW 17:19:19 32° WSW 17:24:17 10° SSW
NOSS 0 Rocket 4.5 17:15:10 10° NNW 17:20:58 39° NE 17:25:12 17° ESE
Cosmos 2221 3.0 17:17:16 10° SSE 17:21:15 38° E 17:25:19 10° NNE
Lacrosse 5 rocket 2.3 17:17:54 10° W 17:22:11 44° NNW 17:25:30 15° NE
SL-8 Rocket 4.5 17:16:19 10° SSW 17:22:29 65° WNW 17:28:43 10° N
Cosmos 2333 4.3 17:16:58 10° NNW 17:22:39 62° ENE 17:28:21 10° SE
Cosmos 2237 4.2 17:18:33 10° NNW 17:24:20 89° ENE 17:30:04 10° SSE
SPOT 3 Rocket 3.9 17:19:37 10° S 17:24:48 69° WSW 17:30:02 10° NNW
SJ-6B 3.2 17:22:45 14° SE 17:25:31 36° ENE 17:28:59 10° N
Cosmos 921 Rocket 3.1 17:21:19 10° NNW 17:25:50 86° WSW 17:30:14 10° SSE
Cosmos 1461 3.6 17:22:05 10° WSW 17:26:07 54° NW 17:30:21 10° NE
Cosmos 1500 Rocket 3.9 17:22:20 10° NNW 17:26:41 67° W 17:30:59 10° S
GRACE-2 3.5 17:25:40 10° S 17:28:14 89° E 17:30:50 10° N
Resurs 01 Rocket 2.7 17:29:38 23° E 17:30:37 25° ENE 17:34:14 10° N
GRACE-1 3.7 17:28:15 10° S 17:30:50 80° W 17:33:27 10° N
Cosmos 1703 4.2 17:30:13 10° NNW 17:34:03 50° W 17:37:50 10° S
Cosmos 2237 Rocket 2.9 17:32:16 10° NNW 17:37:29 35° NE 17:39:53 25° E
Cosmos 2084 3.7 17:33:55 10° NW 17:37:31 39° NE 17:38:36 31° ENE
Cosmos 2098 Rocket 3.7 17:35:20 10° SSE 17:39:42 47° E 17:45:13 10° NNE
Cosmos 1452 Rocket 4.1 17:34:44 10° NNW 17:39:55 59° WSW 17:45:04 10° S
Cosmos 1000 Rocket 4.4 17:34:50 10° N 17:41:08 76° E 17:47:20 10° SSE
USA 234 3.5 17:37:13 22° E 17:41:32 57° NNE 17:47:56 10° WNW
Resurs 1-3 4.4 17:43:53 30° ENE 17:44:23 31° ENE 17:48:15 10° N
Cosmos 1821 Rocket 4.0 17:39:30 10° SSE 17:45:28 55° E 17:51:34 10° NNE
HJ-1C 3.4 17:45:20 35° SE 17:46:30 56° ENE 17:49:53 10° N
SL-16 R/B 3.5 17:42:08 10° NNW 17:46:35 23° NE 17:47:52 21° ENE
COSMO-SKYMED 1 3.3 17:43:59 10° N 17:48:15 55° WNW 17:52:28 10° SSW
Cosmos 44 4.0 17:47:23 10° S 17:50:25 28° SE 17:50:25 28° SE
Cosmos 1934 Rocket 4.2 17:45:39 10° SSE 17:51:42 48° E 17:57:46 10° NNE
Cosmos 2239 Rocket 4.4 17:47:25 10° S 17:53:26 62° E 17:59:31 10° NNE
Cosmos 1726 3.0 17:50:14 10° S 17:56:47 14° NNE 17:57:23 10° NNE
Cosmos 1908 3.3 17:51:29 10° SSW 17:55:24 79° W 17:59:20 10° N
Abrixas rocket 2.2 17:53:31 10° WSW 17:56:47 64° S 17:56:58 62° SSE
Spot 2 Rocket 3.9 17:56:37 35° E 17:57:48 41° ENE 18:02:33 10° N
Sich 1 3.0 17:54:25 10° N 17:58:45 62° ENE 18:00:42 31° SSE
COSMOS 2428 2.9 17:54:53 10° NNW 18:00:35 74° WSW 18:06:07 11° SSE
Cosmos 1110 Rocket 4.1 17:55:30 10° NNW 18:00:46 56° ENE 18:02:39 36° ESE
Cosmos 1980 3.9 17:55:24 10° NNW 18:00:55 50° NE 18:02:43 37° ESE
MOS 1-B Rocket 3.9 17:57:04 19° SE 18:01:05 61° ENE 18:07:13 10° N
Cosmos 2360 Rocket 3.7 17:56:06 10° NW 18:01:13 36° WSW 18:06:19 10° S
GENESIS II 4.1 17:58:31 10° SSW 18:02:29 76° SE 18:03:24 51° ENE
H-2A R/B 3.0 17:59:23 10° S 18:03:15 70° WSW 18:07:12 10° NNW
Cosmos 2333 Rocket 2.2 17:58:17 10° NNW 18:04:02 70° ENE 18:06:48 32° SE
Cosmos 1805 Rocket 3.6 18:00:42 10° NNW 18:05:05 79° W 18:09:29 10° S
Cosmos 2123 Rocket 3.9 18:02:58 10° N 18:09:13 72° E 18:15:20 11° SSE
Cosmos 44 Rocket 3.6 18:04:50 10° SSW 18:08:42 41° SE 18:08:42 41° SE
Cosmos 1666 Rocket 3.4 18:09:25 10° N 18:13:48 85° ENE 18:15:22 39° SSE
Cosmos 2219 3.2 18:08:49 10° S 18:14:24 55° ESE 18:17:13 29° NE
Iridium 4 Rocket 4.1 18:12:30 10° SSW 18:18:03 67° W 18:23:56 10° N
CZ-4C R/B 2.4 18:14:18 10° SSW 18:19:04 45° SE 18:19:04 45° SE
Cosmos 1605 Rocket 4.0 18:13:46 10° SSE 18:19:39 52° E 18:25:32 10° NNE
ATLAS 5 CENTAUR R/B 3.9 18:15:45 10° NW 18:19:46 21° N 18:21:52 17° NE
CZ-2D R/B 3.1 18:20:56 89° SE 18:20:57 90° NE 18:24:52 10° NNW
Aureole 2 Rocket 2.9 18:17:56 10° NNW 18:21:44 67° WSW 18:22:19 56° SSW
Cosmos 1939 Rocket 4.4 18:23:34 26° NNE 18:23:34 26° NNE 18:25:40 10° N
Cosmos 1633 Rocket 2.9 18:17:57 10° N 18:22:23 86° ENE 18:23:09 61° SSE
Geosat 4.4 18:23:27 43° NE 18:23:27 43° NE 18:28:13 10° NNW
Cosmos 1048 Rocket 3.8 18:18:57 10° SSW 18:24:05 85° ESE 18:29:15 10° NNE
SL-8 R/B 3.9 18:19:27 10° WSW 18:24:09 53° SSE 18:24:09 53° SSE
Thor Agena Rocket 3.7 18:19:03 10° NNE 18:24:11 71° WNW 18:29:13 10° SSW
BREEZE-M DEB (TANK) 3.1 18:17:22 10° W 18:25:48 55° S 18:26:22 51° SSE
Envisat 2.8 18:31:40 64° SE 18:32:26 79° ENE 18:37:33 10° NNW
USA 267 3.4 18:47:00 52° SSE 18:47:00 52° SSE 18:53:02 10° SSW
Cosmos 1447 Rocket 4.4 18:42:35 10° N 18:48:59 79° E 18:49:59 64° SE
Cosmos 2219 Rocket 2.9 18:45:30 10° NW 18:50:53 49° WSW 18:53:09 31° SSW
Gbstr 26 Del rocket 4.5 18:48:47 10° WNW 18:53:44 42° SSW 18:54:34 40° SSW
Cosmos 1331 Rocket 4.3 18:53:14 10° NNW 18:58:26 62° WSW 18:58:49 60° SW
Lacrosse 5 rocket 3.1 18:58:15 10° WNW 19:01:11 28° NNW 19:01:11 28° NNW
Resurs 01 Rocket 2.7 19:07:13 43° W 19:07:13 43° W 19:11:09 10° NNW
Cosmos 2237 Rocket 2.8 19:16:15 10° NW 19:21:44 52° WSW 19:21:44 52° WSW
Meteor 2-3 Rocket 4.1 19:18:14 10° NNW 19:23:33 61° WNW 19:23:33 61° WNW
USA 234 3.2 19:24:35 78° SW 19:24:35 78° SW 19:31:02 10° WNW
SL-16 R/B 3.0 19:25:47 10° NNW 19:29:45 47° NNW 19:29:45 47° NNW
H-2A R/B 4.1 19:35:39 21° N 19:35:39 21° N 19:37:27 10° N
Cosmos 2333 Rocket 4.1 19:43:23 10° NW 19:47:47 23° WSW 19:48:50 22° WSW
ATLAS 5 CENTAUR R/B 4.0 20:00:48 10° NW 20:03:24 25° NNW 20:03:24 25° NNW
CZ-4C R/B 4.2 20:02:30 10° WSW 20:04:19 21° W 20:04:19 21° W
